Regional Weather Roundup
Issued by NWS Jackson, KY

Home | Current Version | Previous Version | Graphics & Text | Print | Product List | Glossary On
Versions: 1 2 3 4 5 6 7 8 9 10 11 12 13 14 15 16 17 18 19 20 21 22 23 24 25 26 27 28
000
ASUS43 KJKL 222010
RWRJKL

EAST KENTUCKY HOURLY WEATHER ROUNDUP
NATIONAL WEATHER SERVICE JACKSON KY
300 PM EST WED FEB 22 2017

NOTE: "FAIR" INDICATES FEW OR NO CLOUDS BELOW 12,000 FEET WITH
NO SIGNIFICANT WEATHER AND/OR OBSTRUCTIONS TO VISIBILITY.

* THESE REPORTS ARE NOT UNDER NWS QUALITY CONTROL AND MAY NOT
  REPORT WEATHER SUCH AS PRECIPITATION AND FOG.

KYZ079-080-083-085-087-088-110-112-115-119-120-222100
...EASTERN KENTUCKY...

CITY           SKY/WX    TMP DP  RH WIND       PRES   REMARKS
JACKSON        CLOUDY    59  55  87 VRB3      29.90S
LONDON         CLOUDY    61  54  77 S6        29.89F
SOMERSET*      CLOUDY    63  54  72 S6        29.89F
MONTICELLO*    CLOUDY    66  57  72 VRB6      29.88F
WILLIAMSBURG*  CLOUDY    61  57  88 SE9       29.89S
MIDDLESBORO*   CLOUDY    58  55  89 SE3       29.91F
HARLAN APT*    CLOUDY    57  52  82 CALM      29.91F
PIKE CO APT*   CLOUDY    57  56  96 CALM      29.90F
BIG SANDY APT* CLOUDY    57  56  96 S5        29.90F
MOREHEAD APT*  CLOUDY    59  55  88 CALM      29.89F
ASHLAND*       CLOUDY    59  55  88 S5        29.86F
$$

KYZ035-036-041-042-044-050-067-078-099-222100
...CENTRAL KENTUCKY...

CITY           SKY/WX    TMP DP  RH WIND       PRES   REMARKS
MT STERLING*   CLOUDY    63  57  82 SW6       29.88F
FLEMING/MASON* CLOUDY    62  56  83 S6        29.87F
DANVILLE*      MOSUNNY   64  55  72 S9        29.87S
LEXINGTON      PTSUNNY   66  55  67 SW6       29.86F
FRANKFORT      PTSUNNY   68  55  63 SW7       29.83F
LOUISVILLE     PTSUNNY   71  53  52 VRB5G16   29.82F
LEBANON*         N/A     68  57  68 S8        29.86S
GLASGOW*       CLOUDY    68  56  66 S7        29.84F
BOWLING GREEN  PTSUNNY   72  57  59 S8        29.83S
$$

KYZ091>093-OHZ055-061-077-WVZ005-015-034-035-042-222100
...SOUTHERN OHIO/WEST VIRGINIA...

CITY           SKY/WX    TMP DP  RH WIND       PRES   REMARKS
COVINGTON      CLOUDY    64  57  78 S9        29.83F
COLUMBUS       CLOUDY    60  55  83 S12       29.84F
DAYTON         CLOUDY    59  56  89 S9        29.83F FOG
WILMINGTON     CLOUDY    59  56  89 S8        29.83F
HUNTINGTON     CLOUDY    57  54  89 S5        29.88F
CHARLESTON     CLOUDY    57  54  89 CALM      29.89F
PINEVILLE*     CLOUDY    58  52  82 MISG      29.97F
BECKLEY        LGT RAIN  54  52  93 CALM      29.93S FOG
BLUEFIELD      CLOUDY    54  49  83 VRB3      29.95S
LOGAN CO APT*  CLOUDY    55  54  94 CALM      29.91S
$$

VAZ002-007-008-TNZ017-027-036-066-071-222100
...SOUTHWEST VIRGINIA/EAST TENNESSEE...

CITY           SKY/WX    TMP DP  RH WIND       PRES   REMARKS
WISE*          CLOUDY    55  55 100 CALM      29.94F
JONESVILLE*    CLOUDY    57  55  94 E3        29.94F
ABINGDON*      DRIZZLE   56  55  97 E6        29.94S
BRISTOL        CLOUDY    57  55  93 VRB3      29.92F
MORRISTOWN*    PTCLDY    59  57  94 CALM      29.89F
SEVIERVILLE*   CLOUDY    57  55  94 VRB3      29.88F
KNOXVILLE      PTSUNNY   62  56  80 N10       29.86F
LAFOLLETTE*    CLOUDY    57  55  94 CALM      29.93S
OAK RIDGE      CLOUDY    60  55  83 VRB5      29.90F
CROSSVILLE     CLOUDY    60  54  80 CALM      29.89F
NASHVILLE      CLOUDY    68  56  65 S5        29.85F
$$

...KEY TO REMARKS...
VSB - VISIBILITY IN MILES
WCI - WIND CHILL INDEX
HX  - HEAT INDEX

$$




USA.gov is the U.S. government's official web portal to all federal, state and local government web resources and services.